Regional Weather Roundup
Issued by NWS

Home | Current Version | Previous Version | Graphics & Text | Print | Product List | Glossary On
Versions: 1 2 3 4 5 6 7 8 9 10 11 12 13 14 15 16 17 18 19 20 21 22 23 24 25 26 27 28
000
ASUS45 KSLC 222310
RWRUT

UTAH REGIONAL WEATHER ROUNDUP
NATIONAL WEATHER SERVICE SALT LAKE CITY UT
500 PM MDT TUE MAY 22 2018

UTZ001>011-023>025-230000-

NORTHERN UTAH

CITY           SKY/WX    TMP DP  RH WIND       PRES   REMARKS
BRIGHAM CITY   CLOUDY    58  47  67 SE8       29.93F
DUGWAY         TSTM      54  47  78 W13G21    29.93R
HILL AFB       PTSUNNY   60  46  57 SW3       29.96R
LOGAN          CLOUDY    64  44  48 S21       29.91R
OGDEN          CLOUDY    61  44  53 N7        29.93R
SALT LAKE CITY CLOUDY    65  48  54 N24       29.91F
TOOELE VALLEY  RAIN      59  50  72 E3        29.93S
WENDOVER       PTSUNNY   70  43  37 SE13      29.90S
HEBER CITY       N/A     63  39  42 CALM      29.94F
WEST JORDAN    CLOUDY    64  47  54 NW21      29.93F

$$

UTZ011>015-024>027-230000-

CENTRAL/NORTHEAST UTAH

CITY           SKY/WX    TMP DP  RH WIND       PRES   REMARKS
PROVO AIRPORT  PTSUNNY   70  40  33 NE8       29.88F
MOAB/CANYONLAN CLOUDY    71  46  40 NE10      29.88S
DELTA          PTSUNNY   66  37  34 NW20      29.91R
PRICE          MOSUNNY   72  22  15 S17G24    29.92F
ROOSEVELT      CLOUDY    63  43  48 S18       29.99R
VERNAL         CLOUDY    58  47  66 SE13      29.99S

$$

UTZ013>016-019>022-027-230000-

SOUTHERN UTAH

CITY           SKY/WX    TMP DP  RH WIND       PRES   REMARKS
BRYCE CANYON   MOSUNNY   61  25  25 S17G24    30.01F
CEDAR CITY     CLOUDY    66  34  30 W8        29.94R
MILFORD        CLOUDY    70  37  29 NW8       29.89S
ST GEORGE      CLOUDY    79  38  22 CALM      29.81F
HANKSVILLE     PTSUNNY   79  23  12 S8G20     29.85F
BLANDING         N/A     74  23  14 SW13G24   29.99F

$$

REGIONAL REPORTS     COLORADO/ARIZONA

CITY           SKY/WX    TMP DP  RH WIND       PRES   REMARKS
CRAIG, CO      CLOUDY    60  49  66 W18       30.02S
GRAND JUNCTION LGT RAIN  64  49  57 E13       29.95R
RIFLE, CO      CLOUDY    65  40  39 W15G24    30.00R
MONTROSE, CO   LGT RAIN  58  44  60 NW15      30.04R
CORTEZ, CO     PTSUNNY   74  27  17 S15       29.95F
COLORADO CITY    N/A     73  34  23 W3        29.93F
PAGE, AZ       MOSUNNY   80  26  13 W13G23    29.81F
GRAND CANYON   CLOUDY    64  28  25 W7G16     30.00S
KINGMAN, AZ      N/A    N/A N/A N/A MISG      29.84F
FLAGSTAFF, AZ  SUNNY     65  22  19 SW23G30   30.02S

$$

REGIONAL REPORTS    NEVADA/IDAHO/WYOMING

CITY           SKY/WX    TMP DP  RH WIND       PRES   REMARKS
LAS VEGAS, NV  PTSUNNY   85  33  15 E8        29.74F
ELY, NY        CLOUDY    57  38  48 VRB6      29.99F
ELKO, NV       LGT RAIN  65  43  44 NE15G26   29.89R
POCATELLO, ID  MOSUNNY   74  43  32 SE17      29.86F
BURLEY, ID     LGT RAIN  59  50  72 W16       29.86R
FORT BRIDGER,    N/A     60  38  43 NE7       30.06S
EVANSTON, WY   MOSUNNY   59  38  45 NW5       30.03F
ROCK SPRINGS,  CLOUDY    59  37  44 S13       30.01S
KEMMERER, WY   PTSUNNY   55  39  54 N6        30.05F

$$




USA.gov is the U.S. government's official web portal to all federal, state and local government web resources and services.